Regional Weather Roundup
Issued by NWS

Home | Current Version | Previous Version | Text Only | Print | Product List | Glossary On
Versions: 1 2 3 4 5 6 7 8 9 10 11 12 13 14 15 16 17 18 19 20 21 22 23 24 25 26 27 28 29 30 31 32 33 34 35 36 37 38 39 40 41 42 43 44 45 46 47 48 49 50
000
ASUS43 KDTX 190710
RWRMI
MICHIGAN HOURLY REGIONAL WEATHER ROUNDUP
NATIONAL WEATHER SERVICE DETROIT/PONTIAC MI
300 AM EDT SAT APR 19 2014

NOTE: "FAIR" INDICATES FEW OR NO CLOUDS BELOW 12,000 FEET WITH NO
SIGNIFICANT WEATHER AND/OR OBSTRUCTION TO VISIBILITY.

MIZ047>049-052>055-059>063-066>070-074>076-081>083-190800-
SOUTHEAST LOWER MICHIGAN

CITY           SKY/WX    TMP DP  RH WIND       PRES   REMARKS
ADRIAN         CLEAR     39  32  76 E12       30.35R
ALMA           CLEAR     32  28  86 N5        30.41F
ANN ARBOR      MOCLDY    38  29  70 NE13      30.37R
BAD AXE        CLEAR     31  27  84 N3        30.40S
DETROIT CITY   PTCLDY    39  27  62 NE9       30.39S
DETROIT        PTCLDY    38  28  67 N10       30.39R
FLINT          CLEAR     34  28  79 CALM      30.41R
GROSSE ILE     CLEAR     37  30  75 NE14      30.36R
HILLSDALE      CLEAR     42  36  79 NE6       30.33S
HOWELL         CLEAR     33  29  85 NE7       30.38R

CITY           SKY/WX    TMP DP  RH WIND       PRES   REMARKS
JACKSON        PTCLDY    40  34  79 NE7       30.36R
LAMBERTVILLE   PTCLDY    39  32  75 NE7       30.36R
LANSING        PTCLDY    35  31  85 NE6       30.39S
LAPEER         NOT AVBL
MASON          CLEAR     36  32  87 NE7       30.38S
MONROE         PTCLDY    39  30  70 NE9       30.35R
MT. CLEMENS    CLEAR     33  28  82 NE8       30.39R
PONTIAC        CLEAR     33  27  78 NE7       30.38R
PORT HOPE        N/A     35  31  85 N6        30.38F
PORT HURON     CLEAR     32  30  93 N5        30.40S
TRI CITIES     CLEAR     33  27  78 CALM      30.42S
YPSILANTI      MOCLDY    40  29  64 NE13      30.38R
$$
MIZ043>046-050>051-056>058-064>065-071>073-077>080-190800-
SOUTHWEST LOWER MICHIGAN

CITY           SKY/WX    TMP DP  RH WIND       PRES   REMARKS
BATTLE CREEK   CLEAR     39  29  67 NE9       30.36S
BENTON HARBOR  CLEAR     30  27  88 NE3       30.36S
BIG RAPIDS     CLEAR     31  26  81 CALM      30.39S
COLDWATER      CLEAR     40  32  74 NE7       30.33S
HOLLAND        CLEAR     38  26  62 E8        30.39R
GRAND RAPIDS   CLEAR     36  25  64 NE8       30.39S
KALAMAZOO      CLEAR     40  29  64 NE7       30.36S
MARSHALL       PTCLDY    38  32  79 NE5       30.35R
MUSKEGON       CLEAR     35  23  61 NE7       30.40S
$$
MIZ016>042-190800-
NORTHERN LOWER MICHIGAN

CITY           SKY/WX    TMP DP  RH WIND       PRES   REMARKS
ALPENA         CLEAR     29  28  96 N5        30.41S
BEAVER ISLAND  CLEAR     25  24  96 CALM      30.43S
BELLAIRE       CLEAR     26  24  93 CALM      30.43S
CADILLAC       CLEAR     27  26  94 CALM      30.37S
CHARLEVOIX     CLEAR     29  28  96 CALM      30.46R
FRANKFORT      SUNNY     28  25  89 CALM      30.43R
GAYLORD        CLEAR     28  26  92 N3        30.39R
GRAYLING       CLEAR     21  20  97 CALM      30.40S
HARBOR SPRINGS CLEAR     28  27  96 CALM      30.42R
HOUGHTON LAKE  CLEAR     29  25  85 NE3       30.39F
MANISTEE       CLEAR     30  25  80 NE6       30.42R
OSCODA         CLEAR     30  26  84 N3        30.40S
TRAVERSE CITY  CLEAR     27  24  89 CALM      30.42S
$$
MIZ007>008-015-190800-
EASTERN UPPER MICHIGAN

CITY           SKY/WX    TMP DP  RH WIND       PRES   REMARKS
KINROSS        CLOUDY    28  28 100 N7        30.42S VSB 1/4
MACKINAC ISLAN CLEAR     27  26  99 N6        30.42S
NEWBERRY       CLEAR     25  24  98 CALM      30.42R
S. S. MARIE    PTCLDY    29  27  92 NW5       30.43R FOG
$$
MIZ004>006-011>014-085-190800-
CENTRAL UPPER MICHIGAN

CITY           SKY/WX    TMP DP  RH WIND       PRES   REMARKS
MANISTIQUE     CLEAR     26  24  94 NW6       30.43R
ESCANABA       CLEAR     27  21  80 CALM      30.44R
MENOMINEE      CLEAR     28  25  86 NE3       30.44R
SAWYER-GWINN   CLEAR     18  16  91 CALM      30.42R
$$
MIZ001>003-009>011-084-190800-
WESTERN UPPER MICHIGAN

CITY           SKY/WX    TMP DP  RH WIND       PRES   REMARKS
IRON MOUNTAIN  CLEAR     25  21  85 CALM      30.41R
HOUGHTON       MOCLDY    29  25  85 E9        30.39F
COPPER HARBOR    N/A     24  21  88 CALM      30.44R
IRONWOOD       CLOUDY    36  23  60 SE10      30.31S
$$

ABBREVIATIONS USED IN REMARKS
   TC - TEMPERATURE IN CELSIUS
  WCI - WIND CHILL INDEX
   HX - HEAT INDEX
  VSB - VISIBILITY




USA.gov is the U.S. government's official web portal to all federal, state and local government web resources and services.